If you wish to contribute or participate in the discussions about articles you are invited to join SKYbrary as a registered user

 Actions

Kiev/Boryspil International Airport

From SKYbrary Wiki

UKBB
Airport
ICAO: UKBB – IATA: KBP
Summary
Name Kiev/Boryspil International Airport
Region Europe
Territory Ukraine UA.gif
Location Boryspil
Serving Kiev
Elevation 130.15 m <br />427 ft <br />427 ft130.15 m <br />
Coordinates 50° 20' 42.00" N, 30° 53' 36.00" E
Runways
Designator Length Width Surface ROPS
18L/36R 4000 m13,123.36 ft <br /> 60 m196.85 ft <br /> CON yes/yes
18R/36L 3500 m11,482.94 ft <br /> 63 m206.693 ft <br /> CON yes/yes


METAR
Observation UKBB 131400Z 17004MPS 2500 -RA BR SCT005 OVC018 10/08 Q1018 R18L/CLRD// NOSIG
Station Boryspil
Date/Time 13 April 2021 14:00:00
Wind direction 170°
Wind speed kts
Lowest cloud amount scattered clouds
Temperature 10°C
Dew point 8°C
Humidity 87%
QNH 1018 hPa
Weather condition n/a

Kiev/Boryspil International Airport

ICAO: UKBB IATA: KBP

Description

International airport serving Ukrainian capital city.

Climatology

Humid Continental climate (Köppen climate classification Dfb) - Variable weather patterns and a large seasonal temperature variance. Summers are often warm and humid with frequent thunderstorms and winters can be very cold with frequent snowfall and persistent snow cover.

Maps

Terrain

Loading map...

Airport Layout

Loading map...


Accidents & Serious Incidents at or in vicinity of UKBB

None on SKYbrary